TimeCDT,TemperatureF,Dew PointF,Humidity,Sea Level PressureIn,VisibilityMPH,Wind Direction,Wind SpeedMPH,Gust SpeedMPH,PrecipitationIn,Events,Conditions,WindDirDegrees,DateUTC
12:15 AM,71.6,66.2,83,29.84,10.0,NW,6.9,-,N/A,,Clear,320,2013-06-27 05:15:00
12:35 AM,71.6,66.2,83,29.85,10.0,NW,8.1,-,N/A,,Clear,310,2013-06-27 05:35:00
12:55 AM,69.8,66.2,88,29.85,10.0,NW,6.9,-,N/A,,Clear,320,2013-06-27 05:55:00
1:15 AM,69.8,66.2,88,29.85,10.0,NW,6.9,-,N/A,,Clear,320,2013-06-27 06:15:00
1:35 AM,69.8,66.2,88,29.85,10.0,NNW,4.6,-,N/A,,Clear,330,2013-06-27 06:35:00
1:55 AM,69.8,66.2,88,29.84,10.0,NNW,4.6,-,N/A,,Clear,330,2013-06-27 06:55:00
2:15 AM,68.0,66.2,94,29.85,10.0,NW,5.8,-,N/A,,Clear,320,2013-06-27 07:15:00
2:35 AM,68.0,66.2,94,29.85,10.0,NW,4.6,-,N/A,,Clear,310,2013-06-27 07:35:00
2:55 AM,68.0,66.2,94,29.85,10.0,NW,6.9,-,N/A,,Clear,310,2013-06-27 07:55:00
3:15 AM,68.0,64.4,88,29.86,-9999.0,West,5.8,-,N/A,,Unknown,280,2013-06-27 08:15:00
3:35 AM,66.2,64.4,94,29.85,10.0,West,4.6,-,N/A,,Clear,280,2013-06-27 08:35:00
3:55 AM,66.2,64.4,94,29.86,10.0,West,6.9,-,N/A,,Clear,280,2013-06-27 08:55:00
4:15 AM,66.2,64.4,94,29.86,10.0,West,5.8,-,N/A,,Clear,280,2013-06-27 09:15:00
4:35 AM,66.2,64.4,94,29.87,10.0,West,8.1,-,N/A,,Clear,280,2013-06-27 09:35:00
4:55 AM,66.2,64.4,94,29.87,10.0,West,6.9,-,N/A,,Clear,280,2013-06-27 09:55:00
5:15 AM,66.2,64.4,94,29.86,10.0,West,8.1,-,N/A,,Clear,270,2013-06-27 10:15:00
5:35 AM,66.2,64.4,94,29.87,10.0,WNW,6.9,-,N/A,,Clear,290,2013-06-27 10:35:00
5:55 AM,66.2,64.4,94,29.87,10.0,WNW,6.9,-,N/A,,Clear,300,2013-06-27 10:55:00
6:15 AM,66.2,64.4,94,29.87,10.0,WNW,4.6,-,N/A,,Clear,290,2013-06-27 11:15:00
6:35 AM,68.0,64.4,88,29.87,10.0,WNW,5.8,-,N/A,,Clear,290,2013-06-27 11:35:00
6:55 AM,68.0,66.2,94,29.88,10.0,West,6.9,-,N/A,,Clear,280,2013-06-27 11:55:00
7:15 AM,69.8,66.2,88,29.87,10.0,West,6.9,-,N/A,,Clear,270,2013-06-27 12:15:00
7:55 AM,73.4,68.0,83,29.89,10.0,West,6.9,-,N/A,,Clear,260,2013-06-27 12:55:00
8:15 AM,73.4,68.0,83,29.89,10.0,West,9.2,-,N/A,,Clear,260,2013-06-27 13:15:00
8:35 AM,75.2,68.0,78,29.89,10.0,WSW,5.8,-,N/A,,Scattered Clouds,250,2013-06-27 13:35:00
8:55 AM,75.2,68.0,78,29.89,10.0,WSW,5.8,-,N/A,,Scattered Clouds,240,2013-06-27 13:55:00
9:15 AM,77.0,68.0,74,29.88,10.0,SW,5.8,-,N/A,,Mostly Cloudy,230,2013-06-27 14:15:00
9:35 AM,77.0,68.0,74,29.87,10.0,SW,5.8,-,N/A,,Scattered Clouds,220,2013-06-27 14:35:00
9:55 AM,78.8,68.0,69,29.87,10.0,SW,5.8,-,N/A,,Partly Cloudy,230,2013-06-27 14:55:00
10:35 AM,80.6,69.8,70,29.86,10.0,SW,10.4,-,N/A,,Clear,230,2013-06-27 15:35:00
10:55 AM,82.4,68.0,62,29.85,10.0,WSW,16.1,-,N/A,,Clear,240,2013-06-27 15:55:00
11:55 AM,80.6,68.0,65,29.86,10.0,West,18.4,-,N/A,,Clear,280,2013-06-27 16:55:00
12:15 PM,80.6,68.0,65,29.87,-9999.0,West,20.7,-,N/A,,Clear,280,2013-06-27 17:15:00
12:35 PM,82.4,69.8,66,29.87,10.0,West,16.1,-,N/A,,Clear,280,2013-06-27 17:35:00
12:55 PM,82.4,69.8,66,29.86,10.0,West,17.3,23.0,N/A,,Clear,280,2013-06-27 17:55:00
1:15 PM,84.2,68.0,58,29.87,10.0,WNW,21.9,27.6,N/A,,Clear,300,2013-06-27 18:15:00
1:35 PM,84.2,69.8,62,29.87,10.0,WNW,20.7,-,N/A,,Clear,300,2013-06-27 18:35:00
1:55 PM,84.2,64.4,51,29.86,10.0,WNW,19.6,29.9,N/A,,Clear,300,2013-06-27 18:55:00
2:15 PM,84.2,64.4,51,29.86,10.0,WNW,25.3,32.2,N/A,,Clear,300,2013-06-27 19:15:00
2:35 PM,84.2,60.8,45,29.86,10.0,WNW,27.6,35.7,N/A,,Clear,300,2013-06-27 19:35:00
2:55 PM,84.2,60.8,45,29.86,10.0,WNW,25.3,34.5,N/A,,Clear,300,2013-06-27 19:55:00
3:15 PM,84.2,60.8,45,29.86,10.0,WNW,24.2,34.5,N/A,,Clear,300,2013-06-27 20:15:00
3:35 PM,84.2,60.8,45,29.86,10.0,WNW,20.7,28.8,N/A,,Clear,300,2013-06-27 20:35:00
3:55 PM,82.4,59.0,45,29.85,10.0,NW,21.9,31.1,N/A,,Clear,310,2013-06-27 20:55:00
4:15 PM,82.4,59.0,45,29.85,10.0,WNW,19.6,27.6,N/A,,Clear,300,2013-06-27 21:15:00
4:35 PM,82.4,60.8,48,29.85,10.0,WNW,16.1,24.2,N/A,,Clear,300,2013-06-27 21:35:00
4:55 PM,84.2,60.8,45,29.84,10.0,WNW,20.7,-,N/A,,Clear,290,2013-06-27 21:55:00
5:15 PM,84.2,60.8,45,29.84,10.0,WNW,21.9,33.4,N/A,,Clear,300,2013-06-27 22:15:00
5:35 PM,84.2,59.0,42,29.84,10.0,NW,21.9,28.8,N/A,,Clear,310,2013-06-27 22:35:00
5:55 PM,84.2,57.2,40,29.84,10.0,NW,19.6,29.9,N/A,,Clear,310,2013-06-27 22:55:00
6:15 PM,84.2,57.2,40,29.83,10.0,NW,23.0,29.9,N/A,,Clear,310,2013-06-27 23:15:00
6:35 PM,82.4,55.4,39,29.83,-9999.0,NW,16.1,25.3,N/A,,Clear,310,2013-06-27 23:35:00
6:55 PM,82.4,57.2,42,29.83,10.0,WNW,17.3,25.3,N/A,,Clear,300,2013-06-27 23:55:00
7:15 PM,82.4,57.2,42,29.83,10.0,NW,15.0,20.7,N/A,,Clear,310,2013-06-28 00:15:00
7:35 PM,80.6,57.2,45,29.83,10.0,NW,15.0,21.9,N/A,,Clear,310,2013-06-28 00:35:00
7:55 PM,78.8,60.8,54,29.83,10.0,NW,10.4,-,N/A,,Clear,310,2013-06-28 00:55:00
8:15 PM,77.0,60.8,57,29.83,10.0,WNW,9.2,-,N/A,,Clear,300,2013-06-28 01:15:00
8:35 PM,77.0,62.6,61,29.83,10.0,NW,9.2,-,N/A,,Clear,310,2013-06-28 01:35:00
8:55 PM,73.4,62.6,69,29.83,10.0,WNW,8.1,-,N/A,,Clear,300,2013-06-28 01:55:00
9:15 PM,71.6,62.6,73,29.83,10.0,NW,6.9,12.7,N/A,,Clear,310,2013-06-28 02:15:00
9:35 PM,71.6,62.6,73,29.83,10.0,NW,6.9,-,N/A,,Clear,310,2013-06-28 02:35:00
9:55 PM,69.8,62.6,78,29.84,10.0,WNW,6.9,-,N/A,,Clear,300,2013-06-28 02:55:00
10:15 PM,69.8,62.6,78,29.84,10.0,WNW,5.8,-,N/A,,Clear,290,2013-06-28 03:15:00
10:35 PM,69.8,62.6,78,29.84,10.0,West,6.9,-,N/A,,Clear,270,2013-06-28 03:35:00
10:55 PM,69.8,62.6,78,29.85,10.0,West,8.1,-,N/A,,Clear,260,2013-06-28 03:55:00
11:15 PM,68.0,62.6,83,29.85,10.0,West,8.1,-,N/A,,Clear,260,2013-06-28 04:15:00
11:35 PM,68.0,62.6,83,29.85,10.0,West,8.1,-,N/A,,Clear,270,2013-06-28 04:35:00
11:55 PM,68.0,62.6,83,29.86,10.0,West,6.9,-,N/A,,Clear,270,2013-06-28 04:55:00